TimeCDT,TemperatureF,Dew PointF,Humidity,Sea Level PressureIn,VisibilityMPH,Wind Direction,Wind SpeedMPH,Gust SpeedMPH,PrecipitationIn,Events,Conditions,WindDirDegrees,DateUTC
12:53 AM,79.0,73.0,82,30.07,10.0,ESE,6.9,-,N/A,,Clear,120,2012-10-12 05:53:00
1:53 AM,78.1,73.0,84,30.07,10.0,ESE,4.6,-,N/A,,Clear,110,2012-10-12 06:53:00
2:53 AM,75.2,71.6,89,30.06,10.0,SE,3.5,-,N/A,,Clear,130,2012-10-12 07:53:00
3:53 AM,75.9,73.0,91,30.04,10.0,East,3.5,-,N/A,,Partly Cloudy,100,2012-10-12 08:53:00
4:53 AM,75.9,73.0,91,30.04,10.0,ESE,5.8,-,N/A,,Clear,110,2012-10-12 09:53:00
5:53 AM,75.9,73.0,91,30.05,10.0,ESE,8.1,-,N/A,,Clear,110,2012-10-12 10:53:00
6:53 AM,75.0,72.0,90,30.07,10.0,SE,5.8,-,N/A,,Partly Cloudy,130,2012-10-12 11:53:00
7:53 AM,75.0,73.0,94,30.08,10.0,ESE,8.1,-,N/A,,Clear,110,2012-10-12 12:53:00
8:53 AM,80.1,75.0,85,30.10,10.0,ESE,8.1,-,N/A,,Clear,120,2012-10-12 13:53:00
9:53 AM,84.0,75.0,74,30.11,10.0,SE,12.7,-,N/A,,Clear,130,2012-10-12 14:53:00
10:53 AM,87.1,73.0,63,30.11,10.0,SE,11.5,21.9,N/A,,Mostly Cloudy,140,2012-10-12 15:53:00
11:02 AM,84.2,73.4,70,30.11,10.0,SE,13.8,20.7,N/A,,Mostly Cloudy,140,2012-10-12 16:02:00
11:09 AM,86.0,73.4,66,30.11,10.0,SE,11.5,-,N/A,,Mostly Cloudy,140,2012-10-12 16:09:00
11:53 AM,89.6,73.4,59,30.09,10.0,SE,16.1,-,N/A,,Mostly Cloudy,130,2012-10-12 16:53:00
12:53 PM,86.0,75.9,72,30.06,10.0,SSE,12.7,17.3,0.02,,Mostly Cloudy,160,2012-10-12 17:53:00
1:53 PM,93.0,70.0,47,30.03,10.0,SE,15.0,-,N/A,,Scattered Clouds,140,2012-10-12 18:53:00
2:53 PM,93.9,68.0,43,29.99,10.0,SE,19.6,23.0,N/A,,Scattered Clouds,140,2012-10-12 19:53:00
3:53 PM,96.1,66.0,37,29.99,10.0,SSE,16.1,23.0,N/A,,Scattered Clouds,150,2012-10-12 20:53:00
4:53 PM,95.0,64.9,37,29.98,10.0,SSE,19.6,24.2,N/A,,Partly Cloudy,160,2012-10-12 21:53:00
5:53 PM,91.0,69.1,48,29.99,10.0,SE,19.6,-,N/A,,Clear,130,2012-10-12 22:53:00
6:53 PM,87.1,72.0,61,30.00,10.0,SE,19.6,27.6,N/A,,Partly Cloudy,130,2012-10-12 23:53:00
7:53 PM,84.9,72.0,65,30.02,10.0,SE,18.4,24.2,N/A,,Clear,130,2012-10-13 00:53:00
8:53 PM,82.4,73.4,74,30.04,10.0,ESE,17.3,-,N/A,,Partly Cloudy,120,2012-10-13 01:53:00
9:53 PM,82.0,73.9,76,30.06,10.0,ESE,18.4,23.0,N/A,,Mostly Cloudy,120,2012-10-13 02:53:00
10:53 PM,82.0,73.9,76,30.06,10.0,ESE,15.0,-,0.00,,Mostly Cloudy,120,2012-10-13 03:53:00
11:53 PM,81.0,73.9,79,30.05,10.0,ESE,15.0,-,N/A,,Clear,120,2012-10-13 04:53:00